Location: Phoenix
(33.4480°N, 112.0730°W)
Time: 13:43:58
(UTC-07:00)

Daily predictions for brighter satellites

Satellite Brightness Start Highest point End
(mag) Time Altitude Azimuth Time Altitude Azimuth Time Altitude Azimuth
Cosmos 1802 Rocket 4.1 19:44:55 10° S 19:51:13 89° E 19:57:39 10° N
Thor Agena Rocket 3.7 19:48:42 10° NNE 19:53:52 56° E 19:58:57 10° S
SJ-6B 2.6 19:52:37 10° SSE 19:56:19 83° ENE 20:00:04 10° N
Cosmos 1500 3.4 19:53:23 10° N 19:57:11 54° E 20:00:57 10° SSE
Atlas Centaur 2 1.5 19:54:00 10° W 19:58:07 52° S 20:01:42 10° ESE
Cosmos 1975 4.3 19:56:13 10° NNE 19:59:16 20° ENE 20:02:16 10° SE
Cosmos 1697 Rocket 3.0 19:54:20 10° NNW 19:59:58 70° WSW 20:05:34 10° S
Resurs 01 Rocket 2.3 19:59:58 10° SE 20:04:01 37° ENE 20:08:05 10° N
Spot 2 Rocket 4.3 20:03:03 10° SE 20:07:31 33° ENE 20:12:00 10° N
ERS-2 2.6 20:04:39 10° SE 20:08:08 42° ENE 20:11:38 10° N
Cosmos 468 Rocket 4.1 20:04:50 10° S 20:09:58 54° ESE 20:15:04 10° NNE
ATLAS CENTAUR R/B 1.7 20:05:39 10° NNW 20:10:17 89° WSW 20:15:08 10° SSE
Cosmos 1666 4.0 20:08:36 10° NNE 20:11:44 23° ENE 20:14:25 12° SE
Cosmos 1300 Rocket 3.5 20:08:16 10° N 20:12:38 88° W 20:16:57 10° S
Cosmos 1980 Rocket 2.2 20:08:03 10° NNW 20:13:45 84° ENE 20:19:26 10° SSE
Cosmos 1763 Rocket 4.1 20:11:14 10° SSE 20:16:04 37° E 20:20:54 10° NE
Cosmos 2151 Rocket 4.4 20:11:48 10° NNW 20:16:07 52° W 20:20:24 10° S
GPS 2-05 Rocket1 3.9 20:18:59 10° SSW 20:21:42 24° SSE 20:23:28 16° ESE
Cosmos 841 Rocket 4.4 20:17:24 10° SSE 20:21:47 28° E 20:26:11 10° NE
SJ-11-01 4.4 20:19:26 10° SSE 20:24:04 62° ENE 20:28:44 10° N
Cosmos 1743 3.6 20:21:06 10° NNE 20:24:30 30° E 20:26:47 17° SE
GPS 2-04 Rocket1 3.3 20:23:09 10° W 20:27:11 50° SSW 20:30:11 17° SE
Okean 1 3.5 20:24:37 10° S 20:28:39 74° W 20:32:43 10° N
ATLAS CENTAUR R/B 3.7 20:23:49 10° SW 20:28:53 87° NW 20:44:26 10° NE
SL-24 R/B 4.5 20:27:35 10° S 20:32:26 87° W 20:37:39 10° N
Delta 7925 Rocket 3.9 20:30:33 10° WSW 20:34:52 34° S 20:37:24 20° SE
BREEZE-M DEB (TANK) 3.4 20:33:24 10° NNW 20:35:37 34° NE 20:38:02 17° E
Cosmos 1939 Rocket 3.6 20:35:17 10° S 20:39:16 54° W 20:43:20 10° NNW
Meteor 2-4 Rocket 4.0 20:40:24 13° SSE 20:44:57 45° E 20:50:11 10° NNE
Timation 2 Rocket 4.2 20:40:02 10° SSW 20:45:56 68° WNW 20:51:58 10° NNE
USA 234 3.5 20:40:32 10° NE 20:47:05 75° NW 20:53:37 10° SW
Resurs 1-3 4.1 20:44:02 10° S 20:48:20 58° W 20:52:39 10° NNW
USA 186 4.0 20:46:44 10° SSW 20:49:23 24° W 20:52:10 10° NW
ERS-1 Rocket 4.3 20:47:45 19° E 20:49:40 23° ENE 20:53:35 10° NNE
NOSS 3-2 (C) 4.4 20:45:11 10° SW 20:50:49 50° NW 20:57:00 10° NNE
Tiangong 2 3.9 20:51:03 10° NW 20:53:16 17° N 20:55:29 10° NE
Cosmos 1464 Rocket 4.5 20:49:48 19° SSE 20:53:53 42° E 20:59:49 10° NNE
ARGOS 3.5 20:56:49 26° SE 20:59:36 50° ENE 21:04:48 10° N
NOAA 11 4.4 20:54:55 13° S 20:59:46 73° WSW 21:05:14 10° NNW
Cosmos 1814 Rocket 4.0 20:54:38 10° SSW 20:59:51 86° WNW 21:05:11 10° NNE
Cosmos 1898 Rocket 3.5 20:54:40 10° NNW 21:00:00 81° ENE 21:03:07 26° SSE
Cosmos 1340 Rocket 3.0 21:00:47 34° SSE 21:02:10 50° E 21:06:08 10° NNE
H-2A R/B 2.6 21:00:19 28° ESE 21:02:11 39° ENE 21:06:49 10° N
Cosmos 1455 Rocket 3.7 20:59:19 10° NNE 21:03:23 37° E 21:04:21 33° ESE
Cosmos 2322 Rocket 2.2 20:59:47 10° NNW 21:05:23 68° ENE 21:08:08 30° SE
Shenzhou-11 Module 4.4 21:04:07 10° NNW 21:06:14 18° NNE 21:07:38 13° NE
Cosmos 292 Rocket 3.6 21:02:16 10° S 21:07:00 76° ESE 21:11:46 10° NNE
Cosmos 1975 Rocket 3.8 21:05:38 10° SSW 21:09:50 51° W 21:14:03 10° N
CENTAUR R/B 2.4 21:04:21 10° SSW 21:10:06 84° WNW 21:16:43 10° NNE
SL-16 R/B 2.1 21:09:12 10° NNW 21:14:54 88° ENE 21:17:37 32° SSE
Cosmos 990 Rocket 3.9 21:10:24 10° NNW 21:15:38 80° ENE 21:17:49 36° SSE
Cosmos 1242 Rocket 3.1 21:12:31 10° NNW 21:16:04 53° W 21:17:27 32° SSW
Aureole 2 Rocket 3.7 21:14:38 10° N 21:16:18 23° NE 21:16:18 23° NE
Helios 1A 4.3 21:18:35 25° ENE 21:18:36 25° ENE 21:21:59 10° NNE
DMSP B5D2-2 4.3 21:18:18 10° NNE 21:23:25 48° E 21:24:28 42° SE
Meteor 2-20 4.4 21:20:48 10° N 21:26:58 89° E 21:30:04 32° S
MetOp-B 4.0 21:26:19 40° SSE 21:28:17 79° ENE 21:33:39 10° N
Cosmos 1544 Rocket 3.4 21:26:19 10° N 21:30:47 84° E 21:31:37 58° SSE
Meteor 2-20 Rocket 4.4 21:25:17 10° N 21:31:26 74° E 21:33:45 40° SSE
SL-08 RB Rocket 3.6 21:37:02 58° S 21:37:55 85° WSW 21:42:29 10° NNW
Cosmos 2150 Rocket 3.9 21:32:40 10° NNW 21:38:02 89° ENE 21:39:21 53° SSE
Meteor 1-15 Rocket 4.4 21:33:25 10° N 21:38:58 52° E 21:39:53 47° ESE
Resurs 01 Rocket 4.2 21:38:05 10° SW 21:40:35 15° W 21:43:07 10° WNW
SJ 16-02 2.3 21:38:33 10° N 21:42:18 35° ENE 21:42:18 35° ENE
Cosmos 1536 Rocket 3.5 21:42:25 60° SSW 21:43:10 80° W 21:47:38 10° N
CZ-4C R/B 4.2 21:38:59 10° N 21:45:07 28° NE 21:48:29 21° E
Atlas Centaur 2 3.2 21:43:20 10° WSW 21:44:39 17° WSW 21:44:39 17° WSW
Cosmos 540 Rocket 3.7 21:46:37 28° SSW 21:49:18 69° WNW 21:54:29 10° NNE
Helios 1B rocket 3.2 21:47:25 10° NNE 21:50:19 41° NE 21:50:19 41° NE
OAO 1 Rocket 4.4 21:46:55 10° W 21:52:15 80° N 21:53:17 59° E
Landsat 7 4.3 21:53:33 46° ENE 21:53:33 46° ENE 21:57:50 10° N
Cosmos 2360 Rocket 2.0 21:49:26 10° NNW 21:55:06 76° ENE 21:55:51 65° SE
CZ-2C R/B 4.3 21:53:29 10° NE 21:56:18 21° ENE 21:56:18 21° ENE
Cosmos 2219 Rocket 3.7 21:54:40 10° N 21:58:55 22° ENE 21:59:19 22° ENE
Cosmos 1092 Rocket 4.4 21:59:00 10° N 22:05:05 46° E 22:05:22 46° E
SPOT 5 2.8 22:07:55 70° NNW 22:07:55 70° NNW 22:11:55 10° NNW
Nadezhda 4 Rocket 3.9 22:01:19 10° N 22:07:38 75° E 22:08:28 65° SE
Terra 2.6 22:12:52 42° NE 22:12:52 42° NE 22:16:36 10° N
SL-19 R/B 4.4 22:16:50 68° ESE 22:17:20 71° ENE 22:23:43 10° N
Cosmos 372 Rocket 4.0 22:14:21 10° NNW 22:18:58 71° N 22:18:58 71° N
Lacrosse 5 rocket 2.6 22:15:49 10° NNW 22:18:45 38° N 22:18:45 38° N
Cosmos 2333 Rocket 3.4 22:16:46 10° N 22:21:38 30° ENE 22:21:38 30° ENE
CZ-2C R/B 3.8 22:22:23 44° NE 22:22:23 44° NE 22:27:07 10° N
COSMOS 2428 3.1 22:19:23 10° N 22:24:36 52° NE 22:24:36 52° NE
Cosmos 1025 Rocket 4.0 22:28:21 45° NW 22:28:21 45° NW 22:31:45 10° N
ERS-1 Rocket 4.2 22:27:45 32° WSW 22:28:14 32° W 22:32:43 10° NW
Tiangong 2 4.4 22:28:41 10° NW 22:29:34 14° NNW 22:29:34 14° NNW
Cosmos 2026 Rocket 4.4 22:28:37 10° N 22:33:55 47° ENE 22:33:55 47° ENE
SPOT 1/Viking Rocket 4.2 22:38:06 46° W 22:38:06 46° W 22:42:49 10° NNW
Cosmos 2297 Rocket 3.8 22:41:29 22° NE 22:41:29 22° NE 22:43:48 10° NE
H-2A R/B 4.0 22:40:56 18° WSW 22:41:44 18° W 22:45:07 10° NW
Cosmos 2227 Rocket 3.6 22:44:40 27° NE 22:44:40 27° NE 22:47:27 10° NE
Cosmos 2142 Rocket 4.5 22:44:37 74° NE 22:44:37 74° NE 22:50:18 10° N
Cosmos 2322 4.3 22:42:34 10° NNW 22:47:37 49° W 22:47:37 49° W
Cosmos 2237 Rocket 3.5 22:48:32 10° N 22:52:51 29° NE 22:52:51 29° NE
Cosmos 1125 Rocket 4.4 22:50:15 10° NNW 22:54:16 42° WNW 22:54:16 42° WNW
Cosmos 1634 Rocket 4.3 23:02:32 58° W 23:02:41 59° W 23:08:55 10° N
Cosmos 2219 4.3 23:12:35 36° W 23:13:13 37° WNW 23:18:33 10° N
SJ 16-02 4.1 23:18:21 10° WNW 23:19:19 13° WNW 23:19:19 13° WNW
COSMOS 2455 3.5 23:33:56 52° N 23:33:56 52° N 23:38:36 10° NNE
CZ-4C R/B 3.1 23:26:43 10° NW 23:33:40 65° W 23:33:40 65° W
CZ-2C R/B 3.9 23:33:11 10° N 23:37:50 36° WNW 23:37:50 36° WNW
Cosmos 2219 Rocket 3.6 23:37:44 10° NW 23:41:02 31° WNW 23:41:02 31° WNW
Terra 4.5 23:51:45 12° WNW 23:51:45 12° WNW 23:52:26 10° WNW
